FW3182 Weather Reports


Display with metric or nautical units.
time (UTC)temp
F
wind
direction
speed
MPH
gust
MPH
rain 1hr
in
rain 24hr
in
rain mn
in
humidity
%
barometer
mb
20260506175204 58 19 1.0 3.0 0.00 0.04 0.00 64 1017.8
20260506174704 58 264 1.0 3.0 0.00 0.04 0.00 64 1017.7
20260506174203 58 352 1.0 2.0 0.00 0.04 0.00 65 1017.7
20260506173204 57 319 2.0 5.0 0.00 0.04 0.00 64 1017.5
20260506172704 57 232 1.0 5.0 0.00 0.04 0.00 66 1017.5
20260506171703 56 260 0.0 3.0 0.00 0.04 0.00 69 1017.5
20260506171204 56 304 1.0 5.0 0.00 0.04 0.00 69 1017.5
20260506170703 56 66 2.0 6.0 0.00 0.04 0.00 66 1017.5
20260506170203 56 85 2.0 6.0 0.00 0.04 0.00 66 1017.6
20260506165704 56 354 1.0 5.0 0.00 0.04 0.00 68 1017.5
20260506165204 56 74 3.0 7.0 0.00 0.04 0.00 66 1017.3
20260506164704 56 101 1.0 6.0 0.00 0.04 0.00 69 1017.1
20260506164204 56 86 2.0 7.0 0.00 0.04 0.00 68 1017.0
20260506163703 56 88 1.0 3.0 0.00 0.04 0.00 70 1017.0
20260506163204 55 52 2.0 6.0 0.00 0.04 0.00 70 1017.1
20260506162204 55 346 2.0 3.0 0.00 0.04 0.00 70 1017.2
20260506161203 54 43 0.0 3.0 0.00 0.04 0.00 74 1017.3
20260506160704 53 61 1.0 3.0 0.00 0.04 0.00 73 1017.2
20260506160203 53 345 1.0 9.0 0.00 0.04 0.00 73 1017.3
20260506155704 52 45 2.0 7.0 0.00 0.04 0.00 72 1017.1
20260506155204 52 42 3.0 6.0 0.00 0.04 0.00 76 1017.0
20260506154703 51 35 3.0 6.0 0.00 0.04 0.00 75 1017.0
20260506154203 52 43 3.0 7.0 0.00 0.04 0.00 74 1017.3
20260506153704 51 6 1.0 9.0 0.00 0.04 0.00 75 1017.2
20260506153204 51 56 2.0 7.0 0.00 0.04 0.00 73 1017.1
20260506152703 51 21 2.0 6.0 0.00 0.04 0.00 76 1017.3
20260506152203 51 53 2.0 8.0 0.00 0.04 0.00 74 1017.2
20260506151203 50 13 2.0 6.0 0.00 0.04 0.00 77 1016.9
20260506150203 50 12 3.0 5.0 0.00 0.04 0.00 75 1017.2
20260506145204 49 18 3.0 10.0 0.00 0.04 0.00 77 1016.9
20260506144704 49 21 3.0 9.0 0.00 0.04 0.00 77 1016.9
20260506144204 49 20 2.0 9.0 0.00 0.04 0.00 79 1016.9
20260506143704 49 304 2.0 3.0 0.00 0.04 0.00 79 1017.0
20260506143204 49 321 0.0 3.0 0.00 0.04 0.00 83 1017.1
20260506142703 49 67 1.0 3.0 0.00 0.04 0.00 82 1016.9
20260506142204 49 65 4.0 12.0 0.00 0.04 0.00 81 1016.7
20260506141204 48 25 0.0 3.0 0.00 0.04 0.00 84 1016.6
20260506135704 48 300 2.0 3.0 0.00 0.04 0.00 86 1016.7
20260506135204 47 301 2.0 3.0 0.00 0.04 0.00 86 1016.4
20260506134704 47 346 1.0 3.0 0.00 0.04 0.00 87 1016.3
20260506134203 47 50 1.0 3.0 0.00 0.04 0.00 87 1016.4
20260506133205 47 309 1.0 9.0 0.00 0.04 0.00 89 1016.3
20260506132704 47 312 1.0 3.0 0.00 0.04 0.00 88 1016.5
20260506132204 47 343 0.0 3.0 0.00 0.04 0.00 90 1016.4
20260506131703 47 324 1.0 3.0 0.00 0.04 0.00 89 1016.4
20260506131203 46 34 1.0 2.0 0.00 0.04 0.00 90 1016.4
20260506130703 46 273 1.0 3.0 0.00 0.04 0.00 90 1016.4
20260506130204 46 335 0.0 6.0 0.00 0.04 0.00 89 1016.4
20260506125204 46 305 0.0 5.0 0.00 0.04 0.00 90 1016.5
20260506124703 46 48 1.0 3.0 0.00 0.04 0.00 91 1016.4
20260506124204 46 37 0.0 2.0 0.00 0.04 0.00 91 1016.4
20260506123203 46 284 2.0 7.0 0.00 0.04 0.00 91 1016.1
20260506122703 46 257 1.0 2.0 0.00 0.04 0.00 91 1016.3
20260506122204 45 302 0.0 2.0 0.00 0.04 0.00 91 1016.3
20260506121203 45 294 1.0 2.0 0.00 0.04 0.00 91 1016.5
20260506120204 45 318 0.0 2.0 0.00 0.04 0.00 91 1016.2
20260506115703 45 354 1.0 3.0 0.00 0.04 0.00 91 1016.3
20260506115204 45 297 1.0 2.0 0.00 0.04 0.00 91 1016.1
20260506114204 45 347 2.0 6.0 0.00 0.04 0.00 91 1015.3
20260506113704 45 346 1.0 2.0 0.00 0.04 0.00 91 1015.3
20260506112704 45 322 1.0 2.0 0.00 0.04 0.00 92 1015.1
20260506112204 45 293 0.0 2.0 0.00 0.04 0.00 92 1015.3
20260506110704 45 273 0.0 2.0 0.00 0.04 0.00 92 1014.9
20260506110203 45 270 0.0 1.0 0.00 0.04 0.00 92 1014.7
20260506105703 45 291 1.0 5.0 0.00 0.04 0.00 92 1014.7
20260506105204 45 282 0.0 2.0 0.00 0.04 0.00 93 1014.5
20260506104704 44 318 0.0 2.0 0.00 0.04 0.00 93 1014.5
20260506104203 44 262 0.0 2.0 0.00 0.04 0.00 93 1014.3
20260506103704 44 340 1.0 2.0 0.00 0.04 0.00 93 1014.1
20260506102703 44 303 0.0 0.0 0.00 0.04 0.00 93 1013.9
20260506101703 44 294 0.0 0.0 0.00 0.04 0.00 94 1014.0
20260506100704 44 330 0.0 0.0 0.00 0.04 0.00 94 1013.5
20260506100203 44 331 0.0 1.0 0.00 0.05 0.00 94 1013.3
20260506095704 44 96 0.0 1.0 0.00 0.05 0.00 93 1013.0
20260506094704 44 70 0.0 1.0 0.00 0.05 0.00 94 1013.0
20260506094204 44 70 1.0 2.0 0.00 0.05 0.00 94 1013.0
20260506093703 44 65 0.0 1.0 0.00 0.06 0.00 94 1013.2
20260506092703 44 11 0.0 0.0 0.00 0.06 0.00 94 1013.9
20260506092204 44 11 0.0 1.0 0.00 0.07 0.00 93 1013.9
20260506091703 44 11 0.0 0.0 0.00 0.08 0.00 93 1013.4
20260506091204 44 11 0.0 0.0 0.00 0.09 0.00 93 1013.3
20260506090703 44 11 0.0 1.0 0.00 0.09 0.00 93 1013.5
20260506090204 44 11 0.0 1.0 0.00 0.10 0.00 93 1013.5
20260506085704 44 24 0.0 1.0 0.00 0.12 0.00 93 1013.4
20260506084704 44 30 0.0 0.0 0.00 0.14 0.00 92 1012.9
20260506084203 44 21 0.0 2.0 0.00 0.16 0.00 92 1012.6
20260506083703 44 73 1.0 3.0 0.00 0.18 0.00 92 1012.5
20260506083204 44 67 0.0 2.0 0.00 0.21 0.00 92 1012.4
20260506082704 44 39 2.0 3.0 0.00 0.23 0.00 92 1012.4
20260506081703 44 31 1.0 3.0 0.00 0.26 0.00 93 1011.7
20260506081204 44 96 2.0 5.0 0.00 0.28 0.00 92 1011.6
20260506080704 44 74 2.0 3.0 0.00 0.30 0.00 93 1011.5
20260506080203 44 57 0.0 5.0 0.00 0.33 0.00 93 1011.4
20260506072203 44 356 0.0 1.0 0.00 0.41 0.00 93 1012.6
20260506071204 44 337 1.0 3.0 0.00 0.41 0.00 93 1012.5
20260506062204 44 47 1.0 3.0 0.00 0.41 0.00 95 1012.6
20260506061704 44 61 0.0 1.0 0.00 0.41 0.00 95 1012.7
20260506061204 44 16 0.0 0.0 0.00 0.41 0.00 95 1012.9
20260506060704 44 298 1.0 3.0 0.00 0.41 0.00 95 1012.8
20260506060204 44 317 1.0 5.0 0.00 0.41 0.00 95 1012.5
20260506050703 45 309 1.0 3.0 0.00 0.41 0.00 96 1011.8
20260506050204 45 300 0.0 3.0 0.00 0.41 0.00 96 1011.9
20260506044703 45 328 1.0 3.0 0.01 0.41 0.41 96 1011.7
20260506043704 45 0 1.0 6.0 0.01 0.41 0.41 96 1011.5
20260506042204 45 129 0.0 2.0 0.01 0.41 0.41 96 1011.2
20260506041703 45 304 1.0 1.0 0.01 0.41 0.41 96 1011.4
20260506041204 45 112 1.0 3.0 0.01 0.41 0.41 96 1011.5
20260506040203 45 331 1.0 3.0 0.02 0.41 0.41 96 1011.3
20260506035704 45 34 2.0 3.0 0.02 0.41 0.41 96 1011.4
20260506034703 45 292 0.0 2.0 0.01 0.40 0.40 96 1011.2
20260506034204 45 334 1.0 5.0 0.01 0.40 0.40 95 1011.0
20260506033704 45 295 2.0 7.0 0.01 0.40 0.40 95 1011.0
20260506033204 45 356 1.0 5.0 0.01 0.40 0.40 95 1010.9
20260506032703 46 6 1.0 5.0 0.01 0.40 0.40 95 1011.0
20260506032204 46 85 0.0 5.0 0.01 0.40 0.40 95 1010.9
20260506031704 46 346 0.0 2.0 0.01 0.40 0.40 95 1010.8
20260506030204 46 5 0.0 0.0 0.00 0.39 0.39 94 1010.8
20260506025703 46 175 0.0 1.0 0.00 0.39 0.39 95 1010.9
20260506025204 46 338 0.0 1.0 0.00 0.39 0.39 94 1010.8
20260506023704 46 317 2.0 7.0 0.00 0.39 0.39 95 1009.7
20260506023203 46 1 1.0 5.0 0.00 0.39 0.39 95 1009.7
20260506022704 46 352 1.0 2.0 0.00 0.39 0.39 96 1009.9
20260506022204 46 282 0.0 2.0 0.00 0.39 0.39 96 1009.9
20260506021704 46 281 0.0 3.0 0.00 0.39 0.39 95 1009.6
20260506021203 46 24 1.0 3.0 0.00 0.39 0.39 96 1009.6
20260506020704 46 67 1.0 3.0 0.00 0.39 0.39 96 1009.4
20260506020204 46 44 2.0 3.0 0.00 0.39 0.39 95 1009.3
20260506015703 46 59 0.0 3.0 0.00 0.39 0.39 96 1009.3
20260506015204 46 54 0.0 3.0 0.00 0.39 0.39 95 1009.3
20260506014203 46 315 0.0 0.0 0.00 0.39 0.39 96 1009.3
20260506013704 46 271 0.0 0.0 0.00 0.39 0.39 95 1009.2
20260506013204 46 305 0.0 1.0 0.00 0.39 0.39 95 1009.3
20260506012704 46 256 1.0 3.0 0.00 0.39 0.39 95 1009.1
20260506012203 46 344 1.0 3.0 0.00 0.39 0.39 95 1009.0
20260506010203 46 301 1.0 6.0 0.00 0.39 0.39 95 1008.9
20260506005703 46 312 1.0 2.0 0.00 0.39 0.39 95 1008.8
20260506005204 46 9 1.0 7.0 0.00 0.39 0.39 95 1008.9
20260506004203 46 8 2.0 6.0 0.00 0.39 0.39 95 1008.4
20260506003703 46 321 3.0 6.0 0.00 0.39 0.39 94 1008.5
20260506003204 46 313 1.0 5.0 0.00 0.39 0.39 94 1008.3
20260506002704 47 246 1.0 6.0 0.00 0.39 0.39 94 1008.2
20260506002204 47 293 1.0 3.0 0.00 0.39 0.39 94 1008.1
20260506001204 47 273 0.0 2.0 0.00 0.39 0.39 94 1008.1
20260506000205 47 212 2.0 7.0 0.00 0.39 0.39 93 1007.6
20260505235204 47 19 3.0 10.0 0.00 0.39 0.39 93 1007.5
20260505234703 47 23 3.0 8.0 0.00 0.39 0.39 93 1007.7
20260505233204 48 356 2.0 8.0 0.00 0.39 0.39 92 1007.8
20260505232703 48 54 2.0 6.0 0.00 0.39 0.39 91 1007.8
20260505231204 48 59 3.0 10.0 0.00 0.39 0.39 91 1007.2
20260505230704 48 3 2.0 5.0 0.00 0.39 0.39 91 1007.1
20260505230204 48 324 2.0 8.0 0.00 0.39 0.39 92 1007.1
20260505224704 48 342 2.0 7.0 0.00 0.39 0.39 92 1007.1
20260505224203 48 344 3.0 12.0 0.00 0.39 0.39 91 1007.0
20260505223703 48 23 1.0 9.0 0.00 0.39 0.39 92 1007.3
20260505223204 48 321 3.0 12.0 0.00 0.39 0.39 92 1007.3
20260505221704 49 17 3.0 6.0 0.00 0.39 0.39 93 1006.8
20260505221203 49 20 3.0 10.0 0.00 0.39 0.39 93 1006.6
20260505220704 49 342 1.0 5.0 0.00 0.39 0.39 94 1006.6
20260505220204 49 357 2.0 7.0 0.00 0.39 0.39 94 1006.7
20260505215704 49 349 3.0 9.0 0.00 0.39 0.39 94 1006.8
20260505215203 49 339 1.0 3.0 0.00 0.39 0.39 95 1006.7
20260505214204 49 333 2.0 5.0 0.00 0.39 0.39 95 1006.6
20260505213704 50 298 2.0 6.0 0.00 0.39 0.39 95 1006.6
20260505213204 50 6 4.0 12.0 0.00 0.39 0.39 95 1006.5
20260505212205 50 298 2.0 6.0 0.00 0.39 0.39 96 1006.4
20260505211204 51 20 2.0 9.0 0.00 0.39 0.39 96 1006.4
20260505210704 51 4 2.0 6.0 0.00 0.39 0.39 96 1006.4
20260505210204 51 26 2.0 9.0 0.00 0.39 0.39 96 1006.2
20260505205703 51 76 1.0 8.0 0.00 0.39 0.39 96 1006.2
20260505204704 51 47 3.0 9.0 0.00 0.39 0.39 95 1006.5
20260505204203 51 46 3.0 10.0 0.00 0.39 0.39 95 1006.6
20260505203703 51 302 3.0 10.0 0.01 0.39 0.39 95 1006.9
20260505203204 51 270 2.0 5.0 0.01 0.39 0.39 95 1006.8
20260505202704 51 295 2.0 6.0 0.01 0.39 0.39 96 1006.5
20260505202204 51 287 2.0 5.0 0.01 0.39 0.39 96 1006.0
20260505201703 52 59 1.0 5.0 0.01 0.39 0.39 96 1006.0
20260505201204 52 29 4.0 12.0 0.01 0.39 0.39 95 1005.8
20260505200203 52 36 2.0 7.0 0.01 0.39 0.39 95 1005.8
20260505195704 52 49 2.0 7.0 0.01 0.39 0.39 95 1005.7
20260505194703 53 357 3.0 8.0 0.02 0.39 0.39 95 1005.8
20260505194203 53 43 1.0 5.0 0.02 0.39 0.39 95 1006.0
20260505193204 53 309 1.0 5.0 0.01 0.38 0.38 95 1006.3
20260505192204 53 318 1.0 6.0 0.01 0.38 0.38 95 1006.2
20260505191703 54 282 1.0 3.0 0.01 0.38 0.38 95 1006.1
20260505191203 54 4 3.0 9.0 0.01 0.38 0.38 95 1005.9
20260505190704 54 45 1.0 8.0 0.01 0.38 0.38 95 1005.7
20260505190204 54 336 4.0 10.0 0.01 0.38 0.38 94 1005.5
20260505185703 54 28 3.0 8.0 0.01 0.38 0.38 94 1005.4
20260505185204 54 338 2.0 10.0 0.01 0.38 0.38 93 1005.6
20260505184704 55 3 2.0 5.0 0.00 0.37 0.37 93 1005.8
20260505184203 55 17 0.0 10.0 0.00 0.37 0.37 94 1005.9
20260505183704 55 12 3.0 8.0 0.00 0.37 0.37 93 1005.7
20260505183204 55 326 2.0 6.0 0.00 0.37 0.37 92 1005.7
20260505182704 55 340 2.0 5.0 0.00 0.37 0.37 91 1005.7
20260505182204 55 68 2.0 5.0 0.00 0.37 0.37 91 1005.7
20260505181704 56 9 2.0 6.0 0.00 0.37 0.37 90 1005.6
20260505181204 56 343 1.0 3.0 0.00 0.37 0.37 91 1005.6
20260505180704 56 12 2.0 7.0 0.00 0.37 0.37 90 1005.5
20260505180204 56 314 2.0 6.0 0.00 0.37 0.37 90 1005.5